• In Germany
  • List of Countries
  • For 7 days
  • Water Temperature
  • Satellite Maps
  • Weather Map
  • Weather Widgets
  • user-avatar
    Login

    Hourly Weather Satif

    Today, 23 November, Thursday

    Time Temperature Precipitation Wind Pressure Humidity
    00:00 +7°C° 0 mm 2 mps 672 mmHg 49%
    01:00 +7°C° 0 mm 2 mps 672 mmHg 50%
    02:00 +7°C° 0 mm 2 mps 672 mmHg 51%
    03:00 +7°C° 0 mm 2 mps 671 mmHg 52%
    04:00 +8°C° 0 mm 1 mps 672 mmHg 53%
    05:00 +8°C° 0 mm 1 mps 672 mmHg 54%
    06:00 +8°C° 0 mm 1 mps 672 mmHg 55%
    07:00 +9°C° 0 mm 1 mps 672 mmHg 51%
    08:00 +10°C° 0 mm 1 mps 673 mmHg 47%
    09:00 +11°C° 0 mm 1 mps 674 mmHg 44%
    10:00 +12°C° 0 mm 1 mps 674 mmHg 39%
    11:00 +13°C° 0 mm 1 mps 674 mmHg 34%
    12:00 +14°C° 0 mm 2 mps 674 mmHg 29%
    13:00 +14°C° 0 mm 2 mps 674 mmHg 30%
    14:00 +14°C° 0 mm 2 mps 674 mmHg 30%
    15:00 +13°C° 0 mm 3 mps 674 mmHg 30%
    16:00 +13°C° 0 mm 2 mps 674 mmHg 36%
    17:00 +12°C° 0 mm 2 mps 674 mmHg 41%
    18:00 +9°C° 0 mm 2 mps 674 mmHg 46%
    19:00 +10°C° 0 mm 1 mps 674 mmHg 48%
    20:00 +9°C° 0 mm 1 mps 674 mmHg 50%
    21:00 +9°C° 0 mm 1 mps 674 mmHg 52%
    22:00 +8°C° 0 mm 1 mps 674 mmHg 52%
    23:00 +8°C° 0 mm 1 mps 674 mmHg 51%

    Tomorrow, 24 November, Friday

    Time Temperature Precipitation Wind Pressure Humidity
    00:00 +7°C° 0 mm 1 mps 674 mmHg 50%
    01:00 +7°C° 0 mm 1 mps 674 mmHg 49%
    02:00 +7°C° 0 mm 1 mps 673 mmHg 47%
    03:00 +6°C° 0 mm 1 mps 673 mmHg 46%
    04:00 +6°C° 0 mm 1 mps 673 mmHg 44%
    05:00 +6°C° 0 mm 1 mps 673 mmHg 43%
    06:00 +6°C° 0 mm 1 mps 673 mmHg 41%
    07:00 +8°C° 0 mm 1 mps 674 mmHg 36%
    08:00 +10°C° 0 mm 1 mps 675 mmHg 30%
    09:00 +12°C° 0 mm 1 mps 676 mmHg 25%
    10:00 +14°C° 0 mm 1 mps 676 mmHg 23%
    11:00 +14°C° 0 mm 0 mps 676 mmHg 20%
    12:00 +15°C° 0 mm 0 mps 676 mmHg 18%
    13:00 +15°C° 0 mm 0 mps 676 mmHg 19%
    14:00 +16°C° 0 mm 1 mps 676 mmHg 19%
    15:00 +16°C° 0 mm 1 mps 676 mmHg 20%
    16:00 +14°C° 0 mm 1 mps 675 mmHg 25%
    17:00 +12°C° 0 mm 1 mps 675 mmHg 30%
    18:00 +9°C° 0 mm 0 mps 675 mmHg 34%
    19:00 +10°C° 0 mm 1 mps 675 mmHg 33%
    20:00 +10°C° 0 mm 1 mps 675 mmHg 32%
    21:00 +10°C° 0 mm 1 mps 675 mmHg 30%
    22:00 +10°C° 0 mm 1 mps 675 mmHg 30%
    23:00 +8°C° 0 mm 2 mps 675 mmHg 31%

    Day after tomorrow, 25 November, Saturday

    Time Temperature Precipitation Wind Pressure Humidity
    00:00 +8°C° 0 mm 2 mps 675 mmHg 31%
    01:00 +8°C° 0 mm 2 mps 674 mmHg 32%
    02:00 +8°C° 0 mm 2 mps 674 mmHg 32%
    03:00 +7°C° 0 mm 2 mps 674 mmHg 33%
    04:00 +7°C° 0 mm 2 mps 674 mmHg 34%
    05:00 +7°C° 0 mm 2 mps 674 mmHg 34%
    06:00 +7°C° 0 mm 2 mps 674 mmHg 35%
    07:00 +8°C° 0 mm 2 mps 675 mmHg 33%
    08:00 +10°C° 0 mm 2 mps 675 mmHg 31%
    09:00 +13°C° 0 mm 2 mps 676 mmHg 29%
    10:00 +14°C° 0 mm 2 mps 676 mmHg 26%
    11:00 +15°C° 0 mm 2 mps 676 mmHg 24%
    12:00 +17°C° 0 mm 3 mps 676 mmHg 21%
    13:00 +17°C° 0 mm 2 mps 676 mmHg 22%
    14:00 +17°C° 0 mm 2 mps 676 mmHg 24%
    15:00 +17°C° 0 mm 2 mps 676 mmHg 25%
    16:00 +15°C° 0 mm 2 mps 675 mmHg 29%
    17:00 +13°C° 0 mm 1 mps 675 mmHg 34%
    18:00 +11°C° 0 mm 1 mps 675 mmHg 39%
    19:00 +11°C° 0 mm 1 mps 675 mmHg 38%
    20:00 +10°C° 0 mm 1 mps 675 mmHg 38%
    21:00 +10°C° 0 mm 1 mps 675 mmHg 38%
    22:00 +10°C° 0 mm 1 mps 675 mmHg 38%
    23:00 +9°C° 0 mm 1 mps 675 mmHg 38%

    26 November, Sunday

    Time Temperature Precipitation Wind Pressure Humidity
    00:00 +9°C° 0 mm 1 mps 675 mmHg 37%
    01:00 +9°C° 0 mm 1 mps 674 mmHg 37%
    02:00 +8°C° 0 mm 1 mps 674 mmHg 37%
    03:00 +8°C° 0 mm 1 mps 674 mmHg 37%
    04:00 +8°C° 0 mm 1 mps 674 mmHg 37%
    05:00 +8°C° 0 mm 1 mps 674 mmHg 37%
    06:00 +6°C° 0 mm 0 mps 674 mmHg 38%
    07:00 +8°C° 0 mm 0 mps 675 mmHg 33%
    08:00 +11°C° 0 mm 0 mps 676 mmHg 29%
    09:00 +13°C° 0 mm 0 mps 677 mmHg 24%
    10:00 +14°C° 0 mm 1 mps 677 mmHg 24%
    11:00 +15°C° 0 mm 1 mps 677 mmHg 25%
    12:00 +16°C° 0 mm 2 mps 677 mmHg 25%
    13:00 +16°C° 0 mm 2 mps 677 mmHg 31%
    14:00 +14°C° 0 mm 3 mps 677 mmHg 37%
    15:00 +14°C° 0 mm 3 mps 677 mmHg 43%
    16:00 +13°C° 0 mm 3 mps 677 mmHg 53%
    17:00 +11°C° 0 mm 3 mps 677 mmHg 63%
    18:00 +10°C° 0 mm 3 mps 677 mmHg 73%
    19:00 +10°C° 0 mm 2 mps 677 mmHg 78%
    20:00 +9°C° 0 mm 2 mps 677 mmHg 83%
    21:00 +9°C° 0 mm 2 mps 678 mmHg 88%
    22:00 +9°C° 0 mm 2 mps 678 mmHg 88%
    23:00 +8°C° 0 mm 2 mps 678 mmHg 89%

    27 November, Monday

    Time Temperature Precipitation Wind Pressure Humidity
    00:00 +8°C° 0 mm 2 mps 678 mmHg 90%
    01:00 +8°C° 0.1 mm 2 mps 678 mmHg 90%
    02:00 +8°C° 0.1 mm 2 mps 677 mmHg 90%
    03:00 +7°C° 0.1 mm 2 mps 677 mmHg 90%
    04:00 +7°C° 0 mm 2 mps 677 mmHg 90%
    05:00 +7°C° 0 mm 2 mps 678 mmHg 90%
    06:00 +7°C° 0 mm 2 mps 678 mmHg 90%
    07:00 +7°C° 0 mm 2 mps 678 mmHg 87%
    08:00 +8°C° 0 mm 2 mps 679 mmHg 83%
    09:00 +8°C° 0 mm 2 mps 679 mmHg 80%
    10:00 +9°C° 0 mm 2 mps 679 mmHg 74%
    11:00 +9°C° 0 mm 2 mps 679 mmHg 69%
    12:00 +10°C° 0 mm 2 mps 679 mmHg 64%
    13:00 +10°C° 0 mm 2 mps 679 mmHg 62%
    14:00 +10°C° 0 mm 2 mps 678 mmHg 60%
    15:00 +10°C° 0 mm 2 mps 678 mmHg 58%
    16:00 +9°C° 0 mm 2 mps 678 mmHg 63%
    17:00 +8°C° 0 mm 2 mps 678 mmHg 68%
    18:00 +7°C° 0 mm 2 mps 678 mmHg 73%
    19:00 +7°C° 0 mm 1 mps 678 mmHg 76%
    20:00 +7°C° 0 mm 1 mps 678 mmHg 79%
    21:00 +6°C° 0 mm 1 mps 678 mmHg 83%
    22:00 +6°C° 0 mm 1 mps 678 mmHg 84%
    23:00 +5°C° 0 mm 1 mps 677 mmHg 86%

    28 November, Tuesday

    Time Temperature Precipitation Wind Pressure Humidity
    00:00 +4°C° 0 mm 0 mps 677 mmHg 87%
    01:00 +4°C° 0 mm 0 mps 677 mmHg 87%
    02:00 +3°C° 0 mm 0 mps 676 mmHg 88%
    03:00 +3°C° 0 mm 0 mps 676 mmHg 88%
    04:00 +3°C° 0 mm 0 mps 676 mmHg 87%
    05:00 +3°C° 0 mm 0 mps 676 mmHg 87%
    06:00 +3°C° 0 mm 0 mps 675 mmHg 86%
    07:00 +5°C° 0 mm 1 mps 676 mmHg 78%
    08:00 +7°C° 0 mm 1 mps 676 mmHg 69%
    09:00 +9°C° 0 mm 1 mps 677 mmHg 61%
    10:00 +9°C° 0 mm 2 mps 677 mmHg 56%
    11:00 +10°C° 0 mm 2 mps 676 mmHg 51%
    12:00 +11°C° 0 mm 3 mps 676 mmHg 46%
    13:00 +11°C° 0 mm 3 mps 676 mmHg 48%
    14:00 +11°C° 0 mm 3 mps 675 mmHg 49%
    15:00 +11°C° 0 mm 3 mps 675 mmHg 50%
    16:00 +10°C° 0 mm 2 mps 674 mmHg 56%
    17:00 +9°C° 0 mm 2 mps 674 mmHg 62%
    18:00 +9°C° 0 mm 1 mps 674 mmHg 68%
    19:00 +8°C° 0 mm 1 mps 674 mmHg 70%
    20:00 +8°C° 0 mm 1 mps 674 mmHg 72%
    21:00 +7°C° 0 mm 2 mps 674 mmHg 74%
    22:00 +7°C° 0 mm 2 mps 673 mmHg 76%
    23:00 +7°C° 0 mm 2 mps 673 mmHg 79%
    Show more